Montrose, CO

6:01 PM MST on February 07, 2016 (GMT -0700)
Montrose Regional

Weather History for KMTJ - August, 2014

Change the Weather History Date:

Monday, August 11, 2014

  Actual Average Record
Temperature  
Mean Temperature 72 °F 72 °F  
Max Temperature 90 °F 87 °F 95 °F (2003)
Min Temperature 54 °F 57 °F 47 °F (2013)
Degree Days  
Heating Degree Days 0 0  
Month to date heating degree days 0 0  
Since 1 June heating degree days 18 39  
Since 1 July heating degree days 0 0  
Cooling Degree Days 7 7  
Month to date cooling degree days 82 83  
Year to date cooling degree days 604 505  
Since 1 June cooling degree days 563 488  
Growing Degree Days 22 (Base 50)    
Moisture  
Dew Point 41 °F    
Average Humidity 39    
Maximum Humidity 61    
Minimum Humidity 16    
Precipitation  
Precipitation 0.00 in 0.04 in 0.23 in (1999)
Month to date precipitation 0.42 0.45  
Year to date precipitation 4.52 6.52  
Sea Level Pressure  
Sea Level Pressure 30.07 in    
Wind  
Wind Speed 8 mph (SE)    
Max Wind Speed 21 mph    
Max Gust Speed 26 mph    
Visibility 10 miles    
Events      
T = Trace of Precipitation, MM = Missing Value Source: NWS Daily Summary

Daily Weather History Graph

Daily Weather History Graph

Search for Another Location

Airport or City:

Trip Planner

Search our weather history database for the weather conditions in past years. The results will help you decide how hot, cold, wet, or windy it might be!

Date:

Astronomy

Aug. 11, 2014 Rise Set
Actual Time 6:22 AM MDT 8:10 PM MDT
Civil Twilight 5:53 AM MDT 8:39 PM MDT
Nautical Twilight 5:18 AM MDT 9:13 PM MDT
Astronomical Twilight 4:41 AM MDT 9:50 PM MDT
Moon 8:42 PM MDT (8/11) 7:29 AM MDT (8/11)
Length of Visible Light 14h 45m
Length of Day
13h 48m
Full, 98% of the Moon is Illuminated
Aug 11
Full
Aug 17
Last Quarter
Aug 25
New
Sep 2
First Quarter
Sep 8
Full

Hourly Weather History & Observations

Time (MDT) Temp. Dew Point Humidity Pressure Visibility Wind Dir Wind Speed Gust Speed Precip Events Conditions
12:53 AM 64.0 °F 39.9 °F 41% 30.07 in 10.0 mi South 6.9 mph - N/A   Clear
1:53 AM 69.1 °F 42.1 °F 38% 30.06 in 10.0 mi ESE 21.9 mph - N/A   Clear
2:53 AM 63.0 °F 41.0 °F 45% 30.08 in 10.0 mi SSE 9.2 mph - N/A   Clear
3:53 AM 61.0 °F 39.9 °F 46% 30.08 in 10.0 mi South 4.6 mph - N/A   Clear
4:53 AM 57.0 °F 41.0 °F 55% 30.10 in 10.0 mi East 3.5 mph - N/A   Clear
5:53 AM 55.0 °F 41.0 °F 59% 30.12 in 10.0 mi Variable 5.8 mph - N/A   Clear
6:53 AM 55.0 °F 42.1 °F 62% 30.14 in 10.0 mi ESE 4.6 mph - N/A   Clear
7:53 AM 62.1 °F 41.0 °F 46% 30.14 in 10.0 mi SE 6.9 mph - N/A   Clear
8:53 AM 69.1 °F 42.1 °F 38% 30.15 in 10.0 mi Calm Calm - N/A   Clear
9:53 AM 73.9 °F 42.1 °F 32% 30.13 in 10.0 mi Calm Calm - N/A   Clear
10:53 AM 78.1 °F 45.0 °F 31% 30.11 in 10.0 mi Calm Calm - N/A   Clear
11:53 AM 82.0 °F 44.1 °F 26% 30.09 in 10.0 mi Variable 4.6 mph - N/A   Clear
12:53 PM 84.9 °F 43.0 °F 23% 30.08 in 10.0 mi North 5.8 mph - N/A   Clear
1:53 PM 88.0 °F 39.0 °F 18% 30.03 in 10.0 mi North - - N/A   Clear
2:53 PM 86.0 °F 37.0 °F 18% 30.04 in 10.0 mi WNW 10.4 mph - N/A   Clear
3:53 PM 88.0 °F 37.0 °F 16% 30.01 in 10.0 mi WNW 11.5 mph - N/A   Clear
4:53 PM 88.0 °F 37.0 °F 16% 30.01 in 10.0 mi NW 10.4 mph - N/A   Clear
5:53 PM 89.1 °F 37.9 °F 16% 30.01 in 10.0 mi NW 11.5 mph - N/A   Clear
6:53 PM 84.0 °F 41.0 °F 22% 30.02 in 10.0 mi SSW 10.4 mph - N/A   Clear
7:53 PM 81.0 °F 41.0 °F 24% 30.02 in 10.0 mi SE 11.5 mph - N/A   Clear
8:53 PM 75.0 °F 42.1 °F 31% 30.04 in 10.0 mi SE 8.1 mph - N/A   Clear
9:53 PM 72.0 °F 44.1 °F 37% 30.06 in 10.0 mi ESE 12.7 mph - N/A   Clear
10:53 PM 72.0 °F 42.1 °F 34% 30.05 in 10.0 mi SE 13.8 mph - N/A   Clear
11:53 PM 69.1 °F 42.1 °F 38% 30.05 in 10.0 mi SE 10.4 mph - N/A   Clear